Regional Weather Roundup
Issued by NWS

Home | Current Version | Previous Version | Text Only | Print | Product List | Glossary Off
Versions: 1 2 3 4 5 6 7 8 9 10 11 12 13 14 15 16 17 18 19 20 21 22 23 24 25 26 27 28 29 30 31 32 33 34 35 36 37 38 39 40 41 42 43 44 45 46 47 48 49 50

000
ASUS45 KPSR 210410
RWRAZ

ARIZONA HOURLY REGIONAL WEATHER ROUNDUP
NATIONAL WEATHER SERVICE PHOENIX AZ
900 PM MST SUN AUG 20 2017

NOTE: FAIR INDICATES FEW OR NO CLOUDS BELOW 12,000 FEET WITH NO
SIGNIFICANT WEATHER AND/OR OBSTRUCTIONS TO VISIBILITY.

AZZ001>003-036-210500-
NORTHWEST ARIZONA

CITY           SKY/WX    TMP DP  RH WIND       PRES   REMARKS
BULLHEAD CITY  CLOUDY   100  39  12 S5G17     29.76R
KINGMAN        CLOUDY    75  55  49 SE24G36   30.05R
$$

AZZ004>008-015-016-018-210500-
NORTH CENTRAL ARIZONA

CITY           SKY/WX    TMP DP  RH WIND       PRES   REMARKS
GRAND CANYON   CLOUDY    59  49  69 CALM      30.29S
WILLIAMS       CLOUDY    57  54  88 SW8       30.28F
PRESCOTT       MOCLDY    66  57  72 NW9       30.17S
FLAGSTAFF      CLOUDY    58  48  69 W3        30.28S
PAYSON           N/A     70  50  49 CALM      30.18R
PAGE           CLOUDY    81  45  28 NW9       30.07R
$$

AZZ009>014-017-210500-
NORTHEAST ARIZONA

CITY           SKY/WX    TMP DP  RH WIND       PRES   REMARKS
WINSLOW        CLOUDY    73  48  41 SW3       30.13R
SAINT JOHNS    CLOUDY    65  53  65 CALM      30.18R
WINDOW ROCK    LGT RAIN  60  52  74 E12G20    30.31R
SHOW LOW       CLOUDY    59  54  82 S8        30.24R
$$

AZZ540-542>544-546-548-210500-
GREATER PHOENIX AREA

CITY           SKY/WX    TMP DP  RH WIND       PRES   REMARKS
PHOENIX        CLOUDY    98  47  17 N8        29.82R
BUCKEYE        CLOUDY    93  54  26 E5        29.81R
DEER VALLEY    CLOUDY    93  44  18 E5        29.85R
SCOTTSDALE     CLOUDY    91  51  25 NE16      29.88R
MESA-GATEWAY   MOCLDY    95  48  20 N3        29.86R
CHANDLER       MOCLDY    97  43  15 N7        29.83R
$$

AZZ539-553-210500-
SOUTHWEST MARICOPA COUNTY AND PINAL COUNTY

CITY           SKY/WX    TMP DP  RH WIND       PRES   REMARKS
CASA GRANDE    CLOUDY    92  58  31 N6        29.86R
GILA BEND      FAIR      97  58  27 SW8       29.79R
$$

AZZ503-504-507>509-210500-
SOUTHEAST ARIZONA

CITY           SKY/WX    TMP DP  RH WIND       PRES   REMARKS
TUCSON         CLEAR     90  55  31 SE7       29.96R
DAVIS-MONTHAN  CLOUDY    88  53  29 SE3       29.95R
NOGALES        MOCLDY    73  59  61 E7        30.07R
SIERRA VISTA   CLOUDY    73  52  46 SW7       30.13R
DOUGLAS        CLEAR     70  61  73 NE3       30.09R
SAFFORD        CLOUDY    73  61  65 W15       30.02R
$$

AZZ532-210500-
SOUTHWEST ARIZONA

CITY           SKY/WX    TMP DP  RH WIND       PRES   REMARKS
YUMA           PTCLDY    94  63  35 S9        29.75R
$$

CAZ041-043-047-048-061-525>527-560>570-210500-
SOUTHERN CALIFORNIA

CITY           SKY/WX    TMP DP  RH WIND       PRES   REMARKS
DOWNTOWN L.A.  PTCLDY    69  61  75 W3        29.93R
L.A. AIRPORT   PTCLDY    67  61  81 W10       29.93R
SAN DIEGO      CLOUDY    69  61  75 SW8       29.95R
BURBANK        CLEAR     67  58  72 S9        29.93R
ONTARIO        CLEAR     69  60  73 W9        29.94R
RIVERSIDE      CLEAR     69  61  75 W8        29.93R
PALM SPRINGS   CLEAR     92  53  26 NW17      29.78R
EL CENTRO NAS  CLEAR     92  47  21 NW3       29.75R
IMPERIAL       CLEAR     95  51  22 NW7       29.72R
BLYTHE         MOCLDY   100  41  13 S8        29.75R
NEEDLES        CLOUDY   102  38  11 SW7       29.78R
$$

NVZ020-UTZ003-210500-
SOUTHERN NEVADA-UTAH

CITY           SKY/WX    TMP DP  RH WIND       PRES   REMARKS
LAS VEGAS      MOCLDY    96  44  16 S10       29.86R
SALT LAKE CITY PTCLDY    82  41  23 S8        29.98R
$$

NMZ009-TXZ055-210500-
NEW MEXICO-WEST TEXAS

CITY           SKY/WX    TMP DP  RH WIND       PRES   REMARKS
ALBUQUERQUE    LGT RAIN  67  55  65 E13       30.21R
EL PASO        CLOUDY    75  68  78 N7        30.10R
$$


........................KEY........................
SKY/WX - SKY CONDITION/WEATHER
TMP    - TEMPERATURE IN FAHRENHEIT
DP     - DEW POINT IN FAHRENHEIT
RH     - RELATIVE HUMIDITY IN PERCENT
WIND   - DIRECTION AND SPEED IN MILES PER HOUR (MPH)
VRB    - VARIABLE WIND DIRECTION
PRES   - MEAN SEA LEVEL PRESSURE IN INCHES OF MERCURY
         F - FALLING PRESSURE   R - RISING PRESSURE
         S - STEADY PRESSURE
VSB    - VISIBILITY IN MILES
HX     - HEAT INDEX IN FAHRENHEIT
WCI    - WIND CHILL INDEX IN FAHRENHEIT
TC     - TEMPERATURE IN CELSIUS WHICH IS ALSO KNOWN AS
         TEMPERATURE IN CENTIGRADE
AFB    - AIR FORCE BASE
         LUKE AFB IS LUKE AIR FORCE BASE
         DAVIS-MONTHAN IS DAVIS-MONTHAN AIR FORCE BASE
NAS    - NAVAL AIR STATION
         EL CENTRO NAS IS EL CENTRO NAVAL AIR STATION
N/A    - NOT AVAILABLE




USA.gov is the U.S. government's official web portal to all federal, state and local government web resources and services.